Year,Month,Day,Hour,Minute,Value (Times are PST for temperature in C)
2006,06,27,00,00,17.10
2006,06,27,00,01,17.10
2006,06,27,00,02,17.00
2006,06,27,00,03,17.00
2006,06,27,00,04,17.00
2006,06,27,00,05,16.90
2006,06,27,00,06,16.90
2006,06,27,00,07,16.90
2006,06,27,00,08,16.90
2006,06,27,00,09,16.80
2006,06,27,00,10,16.80
2006,06,27,00,11,16.80
2006,06,27,00,12,16.80
2006,06,27,00,13,16.70
2006,06,27,00,14,16.70
2006,06,27,00,15,16.70
2006,06,27,00,16,16.70
2006,06,27,00,17,16.60
2006,06,27,00,18,16.60
2006,06,27,00,19,16.50
2006,06,27,00,20,16.50
2006,06,27,00,21,16.40
2006,06,27,00,22,16.40
2006,06,27,00,23,16.40
2006,06,27,00,24,16.40
2006,06,27,00,25,16.30
2006,06,27,00,26,16.30
2006,06,27,00,27,16.30
2006,06,27,00,28,16.30
2006,06,27,00,29,16.30
2006,06,27,00,30,16.30
2006,06,27,00,31,16.30
2006,06,27,00,32,16.30
2006,06,27,00,33,16.30
2006,06,27,00,34,16.30
2006,06,27,00,35,16.30
2006,06,27,00,36,16.20
2006,06,27,00,37,16.20
2006,06,27,00,38,16.20
2006,06,27,00,39,16.20
2006,06,27,00,40,16.20
2006,06,27,00,41,16.20
2006,06,27,00,42,16.20
2006,06,27,00,43,16.10
2006,06,27,00,44,16.10
2006,06,27,00,45,16.10
2006,06,27,00,46,16.10
2006,06,27,00,47,16.00
2006,06,27,00,48,16.00
2006,06,27,00,49,15.90
2006,06,27,00,50,15.90
2006,06,27,00,51,15.90
2006,06,27,00,52,15.90
2006,06,27,00,53,15.80
2006,06,27,00,54,15.80
2006,06,27,00,55,15.80
2006,06,27,00,56,15.70
2006,06,27,00,57,15.70
2006,06,27,00,58,15.70
2006,06,27,00,59,15.60
2006,06,27,01,00,15.60
2006,06,27,01,01,15.60
2006,06,27,01,02,15.60
2006,06,27,01,03,15.50
2006,06,27,01,04,15.50
2006,06,27,01,05,15.50
2006,06,27,01,06,15.40
2006,06,27,01,07,15.40
2006,06,27,01,08,15.40
2006,06,27,01,09,15.40
2006,06,27,01,10,15.30
2006,06,27,01,11,15.30
2006,06,27,01,12,15.30
2006,06,27,01,13,15.20
2006,06,27,01,14,15.20
2006,06,27,01,15,15.20
2006,06,27,01,16,15.10
2006,06,27,01,17,15.10
2006,06,27,01,18,15.00
2006,06,27,01,19,15.00
2006,06,27,01,20,15.00
2006,06,27,01,21,15.00
2006,06,27,01,22,15.00
2006,06,27,01,23,15.00
2006,06,27,01,24,15.00
2006,06,27,01,25,15.00
2006,06,27,01,26,15.00
2006,06,27,01,27,15.00
2006,06,27,01,28,15.00
2006,06,27,01,29,15.00
2006,06,27,01,30,15.00
2006,06,27,01,31,14.90
2006,06,27,01,32,14.90
2006,06,27,01,33,14.90
2006,06,27,01,34,14.80
2006,06,27,01,35,14.80
2006,06,27,01,36,14.80
2006,06,27,01,37,14.70
2006,06,27,01,38,14.70
2006,06,27,01,39,14.70
2006,06,27,01,40,14.70
2006,06,27,01,41,14.70
2006,06,27,01,42,14.60
2006,06,27,01,43,14.60
2006,06,27,01,44,14.60
2006,06,27,01,45,14.60
2006,06,27,01,46,14.60
2006,06,27,01,47,14.60
2006,06,27,01,48,14.50
2006,06,27,01,49,14.50
2006,06,27,01,50,14.50
2006,06,27,01,51,14.50
2006,06,27,01,52,14.50
2006,06,27,01,53,14.50
2006,06,27,01,54,14.50
2006,06,27,01,55,14.50
2006,06,27,01,56,14.40
2006,06,27,01,57,14.40
2006,06,27,01,58,14.40
2006,06,27,01,59,14.40
2006,06,27,02,00,14.40
2006,06,27,02,01,14.40
2006,06,27,02,02,14.40
2006,06,27,02,03,14.40
2006,06,27,02,04,14.40
2006,06,27,02,05,14.30
2006,06,27,02,06,14.30
2006,06,27,02,07,14.30
2006,06,27,02,08,14.30
2006,06,27,02,09,14.30
2006,06,27,02,10,14.20
2006,06,27,02,11,14.20
2006,06,27,02,12,14.20
2006,06,27,02,13,14.20
2006,06,27,02,14,14.20
2006,06,27,02,15,14.20
2006,06,27,02,16,14.20
2006,06,27,02,17,14.20
2006,06,27,02,18,14.20
2006,06,27,02,19,14.20
2006,06,27,02,20,14.20
2006,06,27,02,21,14.20
2006,06,27,02,22,14.20
2006,06,27,02,23,14.20
2006,06,27,02,24,14.20
2006,06,27,02,25,14.20
2006,06,27,02,26,14.20
2006,06,27,02,27,14.20
2006,06,27,02,28,14.20
2006,06,27,02,29,14.20
2006,06,27,02,30,14.20
2006,06,27,02,31,14.20
2006,06,27,02,32,14.20
2006,06,27,02,33,14.20
2006,06,27,02,34,14.20
2006,06,27,02,35,14.20
2006,06,27,02,36,14.20
2006,06,27,02,37,14.20
2006,06,27,02,38,14.20
2006,06,27,02,39,14.10
2006,06,27,02,40,14.10
2006,06,27,02,41,14.10
2006,06,27,02,42,14.10
2006,06,27,02,43,14.10
2006,06,27,02,44,14.10
2006,06,27,02,45,14.10
2006,06,27,02,46,14.10
2006,06,27,02,47,14.10
2006,06,27,02,48,14.10
2006,06,27,02,49,14.10
2006,06,27,02,50,14.10
2006,06,27,02,51,14.10
2006,06,27,02,52,14.10
2006,06,27,02,53,14.10
2006,06,27,02,54,14.10
2006,06,27,02,55,14.10
2006,06,27,02,56,14.10
2006,06,27,02,57,14.10
2006,06,27,02,58,14.10
2006,06,27,02,59,14.10
2006,06,27,03,00,14.10
2006,06,27,03,01,14.10
2006,06,27,03,02,14.10
2006,06,27,03,03,14.10
2006,06,27,03,04,14.00
2006,06,27,03,05,14.00
2006,06,27,03,06,14.00
2006,06,27,03,07,14.00
2006,06,27,03,08,14.00
2006,06,27,03,09,13.90
2006,06,27,03,10,13.90
2006,06,27,03,11,13.90
2006,06,27,03,12,13.90
2006,06,27,03,13,13.90
2006,06,27,03,14,13.90
2006,06,27,03,15,13.80
2006,06,27,03,16,13.80
2006,06,27,03,17,13.80
2006,06,27,03,18,13.80
2006,06,27,03,19,13.80
2006,06,27,03,20,13.70
2006,06,27,03,21,13.70
2006,06,27,03,22,13.70
2006,06,27,03,23,13.70
2006,06,27,03,24,13.60
2006,06,27,03,25,13.60
2006,06,27,03,26,13.60
2006,06,27,03,27,13.60
2006,06,27,03,28,13.50
2006,06,27,03,29,13.50
2006,06,27,03,30,13.50
2006,06,27,03,31,13.40
2006,06,27,03,32,13.40
2006,06,27,03,33,13.40
2006,06,27,03,34,13.40
2006,06,27,03,35,13.30
2006,06,27,03,36,13.30
2006,06,27,03,37,13.30
2006,06,27,03,38,13.30
2006,06,27,03,39,13.30
2006,06,27,03,40,13.30
2006,06,27,03,41,13.30
2006,06,27,03,42,13.20
2006,06,27,03,43,13.20
2006,06,27,03,44,13.20
2006,06,27,03,45,13.20
2006,06,27,03,46,13.20
2006,06,27,03,47,13.20
2006,06,27,03,48,13.10
2006,06,27,03,49,13.10
2006,06,27,03,50,13.10
2006,06,27,03,51,13.10
2006,06,27,03,52,13.10
2006,06,27,03,53,13.00
2006,06,27,03,54,13.00
2006,06,27,03,55,13.00
2006,06,27,03,56,12.90
2006,06,27,03,57,12.90
2006,06,27,03,58,12.90
2006,06,27,03,59,12.90
2006,06,27,04,00,12.90
2006,06,27,04,01,12.90
2006,06,27,04,02,12.90
2006,06,27,04,03,12.90
2006,06,27,04,04,12.80
2006,06,27,04,05,12.90
2006,06,27,04,06,12.90
2006,06,27,04,07,12.90
2006,06,27,04,08,12.90
2006,06,27,04,09,12.90
2006,06,27,04,10,12.90
2006,06,27,04,11,12.90
2006,06,27,04,12,12.90
2006,06,27,04,13,12.90
2006,06,27,04,14,12.90
2006,06,27,04,15,12.80
2006,06,27,04,16,12.80
2006,06,27,04,17,12.80
2006,06,27,04,18,12.80
2006,06,27,04,19,12.80
2006,06,27,04,20,12.80
2006,06,27,04,21,12.80
2006,06,27,04,22,12.80
2006,06,27,04,23,12.70
2006,06,27,04,24,12.70
2006,06,27,04,25,12.70
2006,06,27,04,26,12.70
2006,06,27,04,27,12.70
2006,06,27,04,28,12.70
2006,06,27,04,29,12.60
2006,06,27,04,30,12.60
2006,06,27,04,31,12.60
2006,06,27,04,32,12.60
2006,06,27,04,33,12.60
2006,06,27,04,34,12.50
2006,06,27,04,35,12.50
2006,06,27,04,36,12.40
2006,06,27,04,37,12.40
2006,06,27,04,38,12.40
2006,06,27,04,39,12.40
2006,06,27,04,40,12.40
2006,06,27,04,41,12.40
2006,06,27,04,42,12.40
2006,06,27,04,43,12.40
2006,06,27,04,44,12.40
2006,06,27,04,45,12.40
2006,06,27,04,46,12.40
2006,06,27,04,47,12.40
2006,06,27,04,48,12.40
2006,06,27,04,49,12.30
2006,06,27,04,50,12.30
2006,06,27,04,51,12.30
2006,06,27,04,52,12.30
2006,06,27,04,53,12.30
2006,06,27,04,54,12.30
2006,06,27,04,55,12.30
2006,06,27,04,56,12.30
2006,06,27,04,57,12.30
2006,06,27,04,58,12.20
2006,06,27,04,59,12.20
2006,06,27,05,00,12.20
2006,06,27,05,01,12.20
2006,06,27,05,02,12.20
2006,06,27,05,03,12.20
2006,06,27,05,04,12.20
2006,06,27,05,05,12.20
2006,06,27,05,06,12.10
2006,06,27,05,07,12.10
2006,06,27,05,08,12.10
2006,06,27,05,09,12.10
2006,06,27,05,10,12.10
2006,06,27,05,11,12.10
2006,06,27,05,12,12.10
2006,06,27,05,13,12.10
2006,06,27,05,14,12.10
2006,06,27,05,15,12.10
2006,06,27,05,16,12.10
2006,06,27,05,17,12.10
2006,06,27,05,18,12.00
2006,06,27,05,19,12.00
2006,06,27,05,20,12.00
2006,06,27,05,21,12.00
2006,06,27,05,22,12.00
2006,06,27,05,23,12.00
2006,06,27,05,24,11.90
2006,06,27,05,25,11.90
2006,06,27,05,26,11.90
2006,06,27,05,27,11.90
2006,06,27,05,28,11.90
2006,06,27,05,29,11.90
2006,06,27,05,30,11.90
2006,06,27,05,31,11.90
2006,06,27,05,32,11.90
2006,06,27,05,33,11.90
2006,06,27,05,34,11.80
2006,06,27,05,35,11.80
2006,06,27,05,36,11.80
2006,06,27,05,37,11.80
2006,06,27,05,38,11.80
2006,06,27,05,39,11.80
2006,06,27,05,40,11.80
2006,06,27,05,41,11.80
2006,06,27,05,42,11.80
2006,06,27,05,43,11.80
2006,06,27,05,44,11.80
2006,06,27,05,45,11.70
2006,06,27,05,46,11.70
2006,06,27,05,47,11.70
2006,06,27,05,48,11.70
2006,06,27,05,49,11.70
2006,06,27,05,50,11.70
2006,06,27,05,51,11.70
2006,06,27,05,52,11.70
2006,06,27,05,53,11.70
2006,06,27,05,54,11.70
2006,06,27,05,55,11.70
2006,06,27,05,56,11.70
2006,06,27,05,57,11.70
2006,06,27,05,58,11.70
2006,06,27,05,59,11.70
2006,06,27,06,00,11.70
2006,06,27,06,01,11.70
2006,06,27,06,02,11.70
2006,06,27,06,03,11.70
2006,06,27,06,04,11.70
2006,06,27,06,05,11.70
2006,06,27,06,06,11.60
2006,06,27,06,07,11.60
2006,06,27,06,08,11.60
2006,06,27,06,09,11.60
2006,06,27,06,10,11.60
2006,06,27,06,11,11.60
2006,06,27,06,12,11.60
2006,06,27,06,13,11.60
2006,06,27,06,14,11.60
2006,06,27,06,15,11.60
2006,06,27,06,16,11.60
2006,06,27,06,17,11.50
2006,06,27,06,18,11.50
2006,06,27,06,19,11.50
2006,06,27,06,20,11.50
2006,06,27,06,21,11.50
2006,06,27,06,22,11.50
2006,06,27,06,23,11.50
2006,06,27,06,24,11.50
2006,06,27,06,25,11.50
2006,06,27,06,26,11.50
2006,06,27,06,27,11.50
2006,06,27,06,28,11.50
2006,06,27,06,29,11.50
2006,06,27,06,30,11.50
2006,06,27,06,31,11.50
2006,06,27,06,32,11.50
2006,06,27,06,33,11.50
2006,06,27,06,34,11.50
2006,06,27,06,35,11.50
2006,06,27,06,36,11.50
2006,06,27,06,37,11.50
2006,06,27,06,38,11.60
2006,06,27,06,39,11.60
2006,06,27,06,40,11.60
2006,06,27,06,41,11.60
2006,06,27,06,42,11.60
2006,06,27,06,43,11.60
2006,06,27,06,44,11.60
2006,06,27,06,45,11.60
2006,06,27,06,46,11.60
2006,06,27,06,47,11.60
2006,06,27,06,48,11.60
2006,06,27,06,49,11.60
2006,06,27,06,50,11.60
2006,06,27,06,51,11.60
2006,06,27,06,52,11.70
2006,06,27,06,53,11.70
2006,06,27,06,54,11.70
2006,06,27,06,55,11.70
2006,06,27,06,56,11.80
2006,06,27,06,57,11.80
2006,06,27,06,58,11.80
2006,06,27,06,59,11.80
2006,06,27,07,00,11.90
2006,06,27,07,01,11.90
2006,06,27,07,02,12.00
2006,06,27,07,03,12.10
2006,06,27,07,04,12.20
2006,06,27,07,05,12.30
2006,06,27,07,06,12.40
2006,06,27,07,07,12.50
2006,06,27,07,08,12.60
2006,06,27,07,09,12.70
2006,06,27,07,10,12.80
2006,06,27,07,11,12.90
2006,06,27,07,12,13.00
2006,06,27,07,13,13.10
2006,06,27,07,14,13.30
2006,06,27,07,15,13.40
2006,06,27,07,16,13.50
2006,06,27,07,17,13.60
2006,06,27,07,18,13.70
2006,06,27,07,19,13.80
2006,06,27,07,20,13.90
2006,06,27,07,21,14.00
2006,06,27,07,22,14.10
2006,06,27,07,23,14.20
2006,06,27,07,24,14.30
2006,06,27,07,25,14.40
2006,06,27,07,26,14.50
2006,06,27,07,27,14.60
2006,06,27,07,28,14.80
2006,06,27,07,29,14.90
2006,06,27,07,30,15.00
2006,06,27,07,31,15.00
2006,06,27,07,32,15.00
2006,06,27,07,33,15.10
2006,06,27,07,34,15.20
2006,06,27,07,35,15.40
2006,06,27,07,36,15.50
2006,06,27,07,37,15.60
2006,06,27,07,38,15.70
2006,06,27,07,39,15.90
2006,06,27,07,40,16.10
2006,06,27,07,41,16.30
2006,06,27,07,42,16.50
2006,06,27,07,43,16.70
2006,06,27,07,44,16.90
2006,06,27,07,45,17.20
2006,06,27,07,46,17.30
2006,06,27,07,47,17.50
2006,06,27,07,48,17.60
2006,06,27,07,49,17.80
2006,06,27,07,50,17.90
2006,06,27,07,51,18.00
2006,06,27,07,52,18.20
2006,06,27,07,53,18.30
2006,06,27,07,54,18.40
2006,06,27,07,55,18.50
2006,06,27,07,56,18.50
2006,06,27,07,57,18.60
2006,06,27,07,58,18.60
2006,06,27,07,59,18.60
2006,06,27,08,00,18.70
2006,06,27,08,01,18.70
2006,06,27,08,02,18.80
2006,06,27,08,03,18.90
2006,06,27,08,04,19.00
2006,06,27,08,05,19.10
2006,06,27,08,06,19.20
2006,06,27,08,07,19.30
2006,06,27,08,08,19.40
2006,06,27,08,09,19.50
2006,06,27,08,10,19.50
2006,06,27,08,11,19.50
2006,06,27,08,12,19.50
2006,06,27,08,13,19.50
2006,06,27,08,14,19.50
2006,06,27,08,15,19.60
2006,06,27,08,16,19.70
2006,06,27,08,17,19.80
2006,06,27,08,18,19.90
2006,06,27,08,19,20.00
2006,06,27,08,20,20.10
2006,06,27,08,21,20.20
2006,06,27,08,22,20.30
2006,06,27,08,23,20.30
2006,06,27,08,24,20.30
2006,06,27,08,25,20.30
2006,06,27,08,26,20.30
2006,06,27,08,27,20.30
2006,06,27,08,28,20.30
2006,06,27,08,29,20.40
2006,06,27,08,30,20.40
2006,06,27,08,31,20.40
2006,06,27,08,32,20.30
2006,06,27,08,33,20.30
2006,06,27,08,34,20.30
2006,06,27,08,35,20.40
2006,06,27,08,36,20.40
2006,06,27,08,37,20.40
2006,06,27,08,38,20.40
2006,06,27,08,39,20.50
2006,06,27,08,40,20.40
2006,06,27,08,41,20.40
2006,06,27,08,42,20.40
2006,06,27,08,43,20.50
2006,06,27,08,44,20.50
2006,06,27,08,45,20.50
2006,06,27,08,46,20.40
2006,06,27,08,47,20.50
2006,06,27,08,48,20.50
2006,06,27,08,49,20.50
2006,06,27,08,50,20.50
2006,06,27,08,51,20.50
2006,06,27,08,52,20.60
2006,06,27,08,53,20.60
2006,06,27,08,54,20.70
2006,06,27,08,55,20.80
2006,06,27,08,56,20.90
2006,06,27,08,57,20.90
2006,06,27,08,58,20.80
2006,06,27,08,59,20.80
2006,06,27,09,00,20.80
2006,06,27,09,01,20.80
2006,06,27,09,02,20.80
2006,06,27,09,03,20.80
2006,06,27,09,04,20.70
2006,06,27,09,05,20.70
2006,06,27,09,06,20.70
2006,06,27,09,07,20.70
2006,06,27,09,08,20.80
2006,06,27,09,09,20.80
2006,06,27,09,10,20.80
2006,06,27,09,11,20.90
2006,06,27,09,12,20.90
2006,06,27,09,13,21.00
2006,06,27,09,14,21.00
2006,06,27,09,15,21.10
2006,06,27,09,16,21.20
2006,06,27,09,17,21.30
2006,06,27,09,18,21.40
2006,06,27,09,19,21.50
2006,06,27,09,20,21.50
2006,06,27,09,21,21.60
2006,06,27,09,22,21.60
2006,06,27,09,23,21.60
2006,06,27,09,24,21.60
2006,06,27,09,25,21.60
2006,06,27,09,26,21.60
2006,06,27,09,27,21.60
2006,06,27,09,28,21.60
2006,06,27,09,29,21.70
2006,06,27,09,30,21.70
2006,06,27,09,31,21.80
2006,06,27,09,32,21.80
2006,06,27,09,33,21.80
2006,06,27,09,34,21.80
2006,06,27,09,35,21.90
2006,06,27,09,36,22.00
2006,06,27,09,37,22.00
2006,06,27,09,38,22.10
2006,06,27,09,39,22.10
2006,06,27,09,40,22.20
2006,06,27,09,41,22.10
2006,06,27,09,42,22.10
2006,06,27,09,43,22.10
2006,06,27,09,46,22.00
2006,06,27,09,47,22.00
2006,06,27,09,48,21.90
2006,06,27,09,49,21.80
2006,06,27,09,50,21.80
2006,06,27,09,51,21.80
2006,06,27,09,52,21.80
2006,06,27,09,53,21.90
2006,06,27,09,54,22.00
2006,06,27,09,55,22.10
2006,06,27,09,56,22.20
2006,06,27,09,57,22.30
2006,06,27,09,58,22.40
2006,06,27,09,59,22.40
2006,06,27,10,00,22.30
2006,06,27,10,01,22.20
2006,06,27,10,02,22.20
2006,06,27,10,03,22.30
2006,06,27,10,04,22.30
2006,06,27,10,05,22.40
2006,06,27,10,06,22.50
2006,06,27,10,07,22.60
2006,06,27,10,08,22.60
2006,06,27,10,09,22.70
2006,06,27,10,10,22.80
2006,06,27,10,11,22.80
2006,06,27,10,12,22.90
2006,06,27,10,13,23.00
2006,06,27,10,14,23.10
2006,06,27,10,15,23.10
2006,06,27,10,16,23.10
2006,06,27,10,17,23.00
2006,06,27,10,18,23.00
2006,06,27,10,19,23.00
2006,06,27,10,20,23.10
2006,06,27,10,21,23.10
2006,06,27,10,22,23.10
2006,06,27,10,23,23.20
2006,06,27,10,24,23.30
2006,06,27,10,25,23.40
2006,06,27,10,26,23.40
2006,06,27,10,27,23.40
2006,06,27,10,28,23.40
2006,06,27,10,29,23.40
2006,06,27,10,30,23.40
2006,06,27,10,31,23.50
2006,06,27,10,32,23.60
2006,06,27,10,33,23.70
2006,06,27,10,34,23.80
2006,06,27,10,35,23.80
2006,06,27,10,36,23.80
2006,06,27,10,37,23.80
2006,06,27,10,38,23.90
2006,06,27,10,39,23.90
2006,06,27,10,40,23.90
2006,06,27,10,41,23.80
2006,06,27,10,42,23.70
2006,06,27,10,43,23.70
2006,06,27,10,44,23.70
2006,06,27,10,45,23.70
2006,06,27,10,46,23.60
2006,06,27,10,47,23.40
2006,06,27,10,48,23.40
2006,06,27,10,49,23.30
2006,06,27,10,50,23.30
2006,06,27,10,51,23.30
2006,06,27,10,52,23.30
2006,06,27,10,53,23.40
2006,06,27,10,54,23.40
2006,06,27,10,55,23.40
2006,06,27,10,56,23.50
2006,06,27,10,57,23.60
2006,06,27,10,58,23.70
2006,06,27,10,59,23.80
2006,06,27,11,00,23.90
2006,06,27,11,01,24.00
2006,06,27,11,02,24.10
2006,06,27,11,03,24.20
2006,06,27,11,04,24.20
2006,06,27,11,05,24.10
2006,06,27,11,06,24.10
2006,06,27,11,07,24.00
2006,06,27,11,08,24.00
2006,06,27,11,09,24.00
2006,06,27,11,10,24.00
2006,06,27,11,11,24.10
2006,06,27,11,12,24.10
2006,06,27,11,13,24.10
2006,06,27,11,14,24.20
2006,06,27,11,15,24.20
2006,06,27,11,16,24.20
2006,06,27,11,17,24.20
2006,06,27,11,18,24.30
2006,06,27,11,19,24.40
2006,06,27,11,20,24.50
2006,06,27,11,21,24.60
2006,06,27,11,22,24.80
2006,06,27,11,23,24.90
2006,06,27,11,24,24.80
2006,06,27,11,25,24.70
2006,06,27,11,26,24.60
2006,06,27,11,27,24.60
2006,06,27,11,28,24.60
2006,06,27,11,29,24.50
2006,06,27,11,30,24.40
2006,06,27,11,31,24.40
2006,06,27,11,32,24.30
2006,06,27,11,33,24.30
2006,06,27,11,34,24.20
2006,06,27,11,35,24.20
2006,06,27,11,36,24.20
2006,06,27,11,37,24.20
2006,06,27,11,38,24.30
2006,06,27,11,39,24.40
2006,06,27,11,40,24.40
2006,06,27,11,41,24.50
2006,06,27,11,42,24.60
2006,06,27,11,43,24.70
2006,06,27,11,44,24.80
2006,06,27,11,45,24.80
2006,06,27,11,46,24.80
2006,06,27,11,47,24.70
2006,06,27,11,48,24.70
2006,06,27,11,49,24.70
2006,06,27,11,50,24.70
2006,06,27,11,51,24.80
2006,06,27,11,52,24.90
2006,06,27,11,53,25.00
2006,06,27,11,54,25.10
2006,06,27,11,55,25.20
2006,06,27,11,56,25.30
2006,06,27,11,57,25.40
2006,06,27,11,58,25.40
2006,06,27,11,59,25.30
2006,06,27,12,00,25.30
2006,06,27,12,01,25.30
2006,06,27,12,02,25.40
2006,06,27,12,03,25.40
2006,06,27,12,04,25.40
2006,06,27,12,05,25.50
2006,06,27,12,06,25.40
2006,06,27,12,07,25.30
2006,06,27,12,08,25.30
2006,06,27,12,09,25.30
2006,06,27,12,10,25.30
2006,06,27,12,11,25.30
2006,06,27,12,12,25.20
2006,06,27,12,13,25.20
2006,06,27,12,14,25.20
2006,06,27,12,15,25.10
2006,06,27,12,16,25.10
2006,06,27,12,17,25.10
2006,06,27,12,18,25.00
2006,06,27,12,19,25.00
2006,06,27,12,20,25.10
2006,06,27,12,21,25.10
2006,06,27,12,22,25.20
2006,06,27,12,23,25.30
2006,06,27,12,24,25.30
2006,06,27,12,25,25.40
2006,06,27,12,26,25.40
2006,06,27,12,27,25.50
2006,06,27,12,28,25.60
2006,06,27,12,29,25.50
2006,06,27,12,30,25.40
2006,06,27,12,31,25.40
2006,06,27,12,32,25.50
2006,06,27,12,33,25.60
2006,06,27,12,34,25.70
2006,06,27,12,35,25.90
2006,06,27,12,36,26.00
2006,06,27,12,37,26.00
2006,06,27,12,38,26.10
2006,06,27,12,39,26.20
2006,06,27,12,40,26.30
2006,06,27,12,41,26.30
2006,06,27,12,42,26.30
2006,06,27,12,43,26.40
2006,06,27,12,44,26.40
2006,06,27,12,45,26.50
2006,06,27,12,46,26.50
2006,06,27,12,47,26.50
2006,06,27,12,48,26.40
2006,06,27,12,49,26.30
2006,06,27,12,50,26.10
2006,06,27,12,51,25.90
2006,06,27,12,52,25.80
2006,06,27,12,53,25.70
2006,06,27,12,54,25.70
2006,06,27,12,55,25.70
2006,06,27,12,56,25.70
2006,06,27,12,57,25.70
2006,06,27,12,58,25.70
2006,06,27,12,59,25.70
2006,06,27,13,00,25.80
2006,06,27,13,01,25.90
2006,06,27,13,02,25.90
2006,06,27,13,03,25.90
2006,06,27,13,04,26.00
2006,06,27,13,05,26.10
2006,06,27,13,06,26.10
2006,06,27,13,07,26.20
2006,06,27,13,08,26.30
2006,06,27,13,09,26.30
2006,06,27,13,10,26.40
2006,06,27,13,11,26.50
2006,06,27,13,12,26.50
2006,06,27,13,13,26.60
2006,06,27,13,14,26.60
2006,06,27,13,15,26.60
2006,06,27,13,16,26.50
2006,06,27,13,17,26.40
2006,06,27,13,18,26.30
2006,06,27,13,19,26.30
2006,06,27,13,20,26.30
2006,06,27,13,21,26.20
2006,06,27,13,22,26.10
2006,06,27,13,23,26.20
2006,06,27,13,24,26.20
2006,06,27,13,25,26.30
2006,06,27,13,26,26.30
2006,06,27,13,27,26.40
2006,06,27,13,28,26.40
2006,06,27,13,29,26.40
2006,06,27,13,30,26.40
2006,06,27,13,31,26.40
2006,06,27,13,32,26.60
2006,06,27,13,33,26.80
2006,06,27,13,34,26.90
2006,06,27,13,35,27.20
2006,06,27,13,36,27.50
2006,06,27,13,37,27.60
2006,06,27,13,38,27.60
2006,06,27,13,39,27.60
2006,06,27,13,40,27.60
2006,06,27,13,41,27.60
2006,06,27,13,42,27.60
2006,06,27,13,43,27.60
2006,06,27,13,44,27.50
2006,06,27,13,45,27.50
2006,06,27,13,46,27.60
2006,06,27,13,47,27.80
2006,06,27,13,48,28.00
2006,06,27,13,49,28.20
2006,06,27,13,50,28.40
2006,06,27,13,51,28.60
2006,06,27,13,52,28.70
2006,06,27,13,53,28.80
2006,06,27,13,54,29.00
2006,06,27,13,55,29.10
2006,06,27,13,56,29.20
2006,06,27,13,57,29.20
2006,06,27,13,58,29.10
2006,06,27,13,59,29.00
2006,06,27,14,00,28.90
2006,06,27,14,01,28.90
2006,06,27,14,02,28.90
2006,06,27,14,03,28.80
2006,06,27,14,04,28.90
2006,06,27,14,05,29.00
2006,06,27,14,06,29.00
2006,06,27,14,07,29.10
2006,06,27,14,08,29.00
2006,06,27,14,09,29.00
2006,06,27,14,10,28.90
2006,06,27,14,11,28.80
2006,06,27,14,12,28.80
2006,06,27,14,13,28.80
2006,06,27,14,14,28.80
2006,06,27,14,15,28.90
2006,06,27,14,16,28.90
2006,06,27,14,17,29.00
2006,06,27,14,18,29.00
2006,06,27,14,19,29.00
2006,06,27,14,20,29.00
2006,06,27,14,21,29.10
2006,06,27,14,22,29.10
2006,06,27,14,23,29.20
2006,06,27,14,24,29.10
2006,06,27,14,25,29.10
2006,06,27,14,26,28.90
2006,06,27,14,27,28.90
2006,06,27,14,28,28.80
2006,06,27,14,29,28.80
2006,06,27,14,30,28.80
2006,06,27,14,31,28.90
2006,06,27,14,32,29.10
2006,06,27,14,33,29.20
2006,06,27,14,34,29.20
2006,06,27,14,35,29.30
2006,06,27,14,36,29.30
2006,06,27,14,37,29.30
2006,06,27,14,38,29.30
2006,06,27,14,39,29.30
2006,06,27,14,40,29.10
2006,06,27,14,41,28.90
2006,06,27,14,42,29.00
2006,06,27,14,43,29.00
2006,06,27,14,44,29.00
2006,06,27,14,45,28.90
2006,06,27,14,46,28.90
2006,06,27,14,47,29.00
2006,06,27,14,48,29.00
2006,06,27,14,49,29.10
2006,06,27,14,50,29.20
2006,06,27,14,51,29.30
2006,06,27,14,52,29.30
2006,06,27,14,53,29.40
2006,06,27,14,54,29.40
2006,06,27,14,55,29.40
2006,06,27,14,56,29.40
2006,06,27,14,57,29.50
2006,06,27,14,58,29.50
2006,06,27,14,59,29.40
2006,06,27,15,00,29.30
2006,06,27,15,01,29.20
2006,06,27,15,02,29.00
2006,06,27,15,03,28.70
2006,06,27,15,04,28.40
2006,06,27,15,05,28.30
2006,06,27,15,06,28.40
2006,06,27,15,07,28.40
2006,06,27,15,08,28.30
2006,06,27,15,09,28.20
2006,06,27,15,10,28.20
2006,06,27,15,11,28.20
2006,06,27,15,12,28.20
2006,06,27,15,13,28.20
2006,06,27,15,14,28.30
2006,06,27,15,15,28.30
2006,06,27,15,16,28.30
2006,06,27,15,17,28.30
2006,06,27,15,18,28.40
2006,06,27,15,19,28.40
2006,06,27,15,20,28.50
2006,06,27,15,21,28.40
2006,06,27,15,22,28.30
2006,06,27,15,23,28.20
2006,06,27,15,24,28.20
2006,06,27,15,25,28.20
2006,06,27,15,26,28.30
2006,06,27,15,27,28.40
2006,06,27,15,28,28.50
2006,06,27,15,29,28.70
2006,06,27,15,30,28.80
2006,06,27,15,31,28.80
2006,06,27,15,32,28.90
2006,06,27,15,33,28.90
2006,06,27,15,34,28.70
2006,06,27,15,35,28.50
2006,06,27,15,36,28.40
2006,06,27,15,37,28.40
2006,06,27,15,38,28.40
2006,06,27,15,39,28.20
2006,06,27,15,40,28.00
2006,06,27,15,41,27.90
2006,06,27,15,42,27.80
2006,06,27,15,43,27.70
2006,06,27,15,44,27.80
2006,06,27,15,45,27.90
2006,06,27,15,46,27.80
2006,06,27,15,47,27.80
2006,06,27,15,48,27.90
2006,06,27,15,49,28.00
2006,06,27,15,50,28.10
2006,06,27,15,51,28.20
2006,06,27,15,52,28.20
2006,06,27,15,53,28.20
2006,06,27,15,54,28.20
2006,06,27,15,55,28.10
2006,06,27,15,56,28.00
2006,06,27,15,57,28.10
2006,06,27,15,58,28.10
2006,06,27,15,59,28.00
2006,06,27,16,00,27.80
2006,06,27,16,01,27.80
2006,06,27,16,02,27.70
2006,06,27,16,03,27.60
2006,06,27,16,04,27.60
2006,06,27,16,05,27.50
2006,06,27,16,06,27.60
2006,06,27,16,07,27.60
2006,06,27,16,08,27.70
2006,06,27,16,09,27.80
2006,06,27,16,10,27.80
2006,06,27,16,11,27.90
2006,06,27,16,12,27.90
2006,06,27,16,13,28.00
2006,06,27,16,14,28.10
2006,06,27,16,15,28.10
2006,06,27,16,16,28.20
2006,06,27,16,17,28.20
2006,06,27,16,18,28.20
2006,06,27,16,19,28.20
2006,06,27,16,20,28.30
2006,06,27,16,21,28.20
2006,06,27,16,22,28.30
2006,06,27,16,23,28.30
2006,06,27,16,24,28.30
2006,06,27,16,25,28.40
2006,06,27,16,26,28.30
2006,06,27,16,27,28.10
2006,06,27,16,28,28.00
2006,06,27,16,29,27.90
2006,06,27,16,30,27.90
2006,06,27,16,31,27.90
2006,06,27,16,32,28.00
2006,06,27,16,33,28.00
2006,06,27,16,34,28.10
2006,06,27,16,35,28.10
2006,06,27,16,36,28.10
2006,06,27,16,37,28.20
2006,06,27,16,38,28.10
2006,06,27,16,39,28.10
2006,06,27,16,40,28.10
2006,06,27,16,41,28.00
2006,06,27,16,42,27.90
2006,06,27,16,43,27.90
2006,06,27,16,44,27.90
2006,06,27,16,45,27.80
2006,06,27,16,46,27.80
2006,06,27,16,47,27.70
2006,06,27,16,48,27.60
2006,06,27,16,49,27.60
2006,06,27,16,50,27.60
2006,06,27,16,51,27.60
2006,06,27,16,52,27.70
2006,06,27,16,53,27.80
2006,06,27,16,54,27.80
2006,06,27,16,55,27.90
2006,06,27,16,56,28.10
2006,06,27,16,57,28.10
2006,06,27,16,58,28.10
2006,06,27,16,59,28.10
2006,06,27,17,00,28.10
2006,06,27,17,01,28.10
2006,06,27,17,02,28.10
2006,06,27,17,03,28.00
2006,06,27,17,04,27.90
2006,06,27,17,05,27.70
2006,06,27,17,06,27.40
2006,06,27,17,07,27.30
2006,06,27,17,08,27.20
2006,06,27,17,09,27.20
2006,06,27,17,10,27.00
2006,06,27,17,11,26.90
2006,06,27,17,12,26.80
2006,06,27,17,13,26.60
2006,06,27,17,14,26.40
2006,06,27,17,15,26.30
2006,06,27,17,16,26.30
2006,06,27,17,17,26.20
2006,06,27,17,18,26.20
2006,06,27,17,19,26.20
2006,06,27,17,20,26.20
2006,06,27,17,21,26.20